Weather in Oshya

Russia / Perm Krai     56°30′12″N   54°52′47″E
temp.,
°C
wind,
m/s
gust,
m/s
humid.,
%
clouds,
%
prec.,
mm/h
press.,
hPa
HPBL,
m
2 march, tue
tue223:00−17sw349880 0.1 101739
02:00−20ssw4710084 0.0 1015122
05:00−19ssw5109892 0.0 1012258
08:00−18s71396100 0.0 1008341
11:00−14s81395100 0.8 1005506
14:00−10ssw81394100 1.1 1002636
17:00−8ssw81293100 1.9 999645
20:00−7s71395100 1.1 997556
3 march, wed
wed323:00−4ssw71395100 2.1 996479
02:00−1sw5997100 0.6 994415
05:00−2w599799 1.8 995448
08:00−4wsw5896100 0.6 995271
11:00−3w3596100 1.2 997307
14:00−1w4693100 0.6 997570
17:00−2wsw4691100 0.6 998564
20:00−3w3697100 0.8 998307
4 march, thu
thu423:00−5w3797100 1.3 999202
02:00−7nw61193100 0.4 999491
05:00−11wnw499499 0.5 1001221
08:00−15w349855 0.0 100285
11:00−10wsw479576 0.1 1003305
14:00−7sw5894100 0.1 1002478
17:00−6sw61092100 0.2 1002606
20:00−6ssw61394100 0.2 1000559
5 march, fri
fri523:00−6ssw91594100 1.1 997712
02:00−3ssw101796100 1.7 993977
05:00−1wsw101895100 3.5 9911146
08:00−1wsw101791100 1.1 9921282
11:00−4w9158183 1.3 996956
14:00−4w9138521 0.0 999890
17:00−5w6108759 0.1 1003778
20:00−9wsw479499 0.0 1005121
6 march, sat
sat623:00−13w459693 0.1 100981
02:00−15wnw349760 0.0 101036
05:00−19wnw1110063 0.0 101220
08:00−17ese119798 0.0 101120
11:00−13e359499 0.0 1008217
14:00−10ene5895100 0.6 1003366
17:00−8ne71094100 3.3 999500
20:00−10n71293100 1.7 998484